Theta_e
334 336 347 349 350 350 351 351 351 350 349 349 349 348 348 348 349 348 348 349 348 347 346 345 345 344 341 339 337 337 336 337 339 343 347 351 351 350 349 349 350 349 350
334 336 346 349 352 351 350 351 350 350 348 348 348 349 348 347 346 346 346 347 346 345 343 341 339 339 337 334 333 333 332 335 336 338 342 348 348 347 346 346 348 348 350
333 337 345 348 351 351 350 350 350 349 348 348 348 347 346 342 340 340 342 342 343 342 339 337 335 334 333 329 329 330 331 334 334 335 341 344 345 346 344 343 344 346 348
333 336 339 345 350 351 351 350 349 348 348 348 347 345 343 339 337 337 337 339 339 338 337 334 331 329 326 326 327 328 331 331 331 334 341 341 344 345 344 341 341 342 344
334 337 340 344 349 351 351 351 350 350 349 347 346 343 341 338 337 336 336 337 337 336 332 328 326 324 324 323 323 324 327 326 326 336 340 342 342 343 343 339 338 338 339
335 338 342 345 349 350 350 350 350 349 348 347 344 340 340 338 335 334 335 335 334 330 327 324 323 322 321 321 320 321 322 320 327 334 337 338 339 339 339 338 336 334 336
335 340 343 344 347 349 349 350 349 348 348 346 342 339 338 336 333 330 333 330 328 326 324 324 323 321 320 319 318 317 316 316 324 328 332 335 335 334 335 334 333 332 331
335 339 342 338 341 344 346 347 347 347 344 341 340 339 336 334 331 329 329 326 325 324 324 324 321 320 318 316 315 313 312 312 319 323 327 330 330 331 331 330 330 329 329
336 338 340 343 341 335 338 339 339 340 340 339 338 337 335 332 328 327 326 325 324 324 323 321 320 318 316 314 312 310 308 309 316 318 320 326 326 328 327 327 327 326 327
334 336 338 340 342 342 342 332 334 336 336 336 336 333 330 328 327 327 325 325 323 323 321 319 318 316 313 310 308 306 304 307 308 311 316 319 321 324 324 324 324 325 326
327 332 335 336 339 339 339 336 329 330 331 331 331 326 323 326 324 322 322 324 323 320 319 317 316 313 310 307 304 301 301 303 304 307 311 314 317 319 321 322 324 325 325
323 326 329 332 334 336 335 335 336 334 333 331 331 329 327 324 322 320 318 321 321 319 316 314 311 306 300 303 301 299 302 302 302 305 309 310 314 318 319 322 323 323 323
323 324 325 328 331 332 332 332 331 332 331 329 331 328 325 321 319 319 319 319 318 314 313 310 304 301 301 301 301 301 300 301 302 302 304 306 312 316 321 321 321 321 323
320 322 324 326 328 329 331 330 331 329 328 327 327 325 321 318 317 316 316 317 316 313 310 304 302 302 300 300 300 299 299 300 301 301 303 305 312 318 320 321 321 322 324
317 319 321 323 325 326 327 328 328 327 326 327 324 321 319 317 314 314 314 314 313 309 306 301 301 300 299 299 299 299 298 299 299 301 307 306 311 317 319 321 321 322 319
314 316 319 320 322 324 324 325 325 325 325 324 322 319 317 316 313 311 311 310 309 306 302 301 300 300 299 299 297 297 297 298 298 300 306 309 309 318 319 320 321 318 315
313 314 316 317 319 321 322 323 323 323 322 322 319 318 314 313 311 309 308 307 305 302 300 300 299 299 298 297 297 297 297 297 298 299 302 309 311 311 317 316 316 313 310
311 312 314 314 316 318 319 321 320 320 319 318 318 315 312 309 308 307 305 304 301 300 299 298 297 297 297 297 296 296 296 297 297 298 300 306 308 310 311 311 309 306 304
310 310 311 313 313 315 317 319 319 318 317 316 316 313 311 308 306 304 304 302 300 298 298 297 297 297 296 296 295 296 296 297 298 297 300 303 306 307 307 298 298 299 302
309 309 310 310 311 313 314 316 317 316 315 315 314 312 310 307 304 303 303 301 298 297 297 297 296 296 297 296 291 293 295 297 297 297 298 299 302 299 299 296 296 297 298
307 307 307 307 308 309 310 311 312 311 312 311 312 310 308 306 303 302 301 300 298 297 297 296 296 294 294 295 293 293 293 293 293 294 295 297 297 295 295 295 295 295 297
307 306 306 306 306 307 308 310 310 310 311 310 311 308 307 305 304 301 301 300 297 297 296 296 295 294 295 294 294 294 290 290 291 292 293 295 295 294 293 292 293 293 294
306 305 305 305 305 305 306 307 307 308 306 306 307 306 305 304 302 301 301 299 297 297 296 296 295 295 293 293 295 295 291 292 290 291 291 293 293 292 292 292 291 292 293
304 306 304 304 304 304 304 304 304 302 302 303 304 304 304 303 302 301 300 299 298 297 296 296 296 296 297 292 292 291 292 295 292 287 290 290 291 290 291 291 291 291 292
302 302 303 303 303 303 303 302 303 302 303 304 304 302 302 301 301 300 300 299 298 297 297 296 294 295 296 296 293 291 290 291 292 293 289 287 290 290 291 291 291 291 291
300 299 299 299 299 301 301 301 301 301 301 302 302 300 300 300 298 299 299 298 298 297 296 296 295 295 294 296 295 294 292 291 290 291 291 290 289 290 291 291 290 290 291
Wind_Speed
12 13 15 16 16 13 12 12 13 12 11 10 10 11 11 12 11 10 8 9 11 12 12 12 11 11 11 9 8 8 8 9 9 10 12 12 14 15 14 13 8 12 12
14 14 13 15 15 14 13 12 12 12 11 11 11 12 12 13 10 10 10 10 11 11 12 10 8 8 7 6 7 6 7 8 8 8 5 11 13 15 14 14 13 12 13
14 14 15 12 14 15 13 11 11 12 11 12 12 11 11 9 6 6 7 6 8 10 10 8 6 7 6 5 5 6 6 8 7 7 3 6 11 13 13 14 12 13 14
13 13 14 11 11 14 14 13 13 12 12 12 12 10 10 7 6 6 5 5 5 8 8 7 7 7 5 5 5 6 6 7 7 1 4 6 9 11 13 12 13 13 13
13 12 12 12 12 12 14 13 13 13 13 13 12 9 9 7 5 6 6 6 7 7 7 7 7 7 6 6 6 8 7 7 5 3 5 5 9 10 13 10 11 14 11
13 12 9 11 12 12 12 12 12 11 12 14 13 8 8 8 7 6 6 7 8 8 7 8 8 7 6 7 7 8 8 6 2 6 6 7 8 10 11 11 11 12 12
14 12 11 9 11 12 13 14 13 14 14 11 9 10 8 7 7 7 7 8 8 8 8 9 9 8 8 8 9 8 8 8 5 6 6 5 8 9 9 10 9 10 10
15 13 12 10 9 9 10 13 14 14 11 8 9 10 9 9 9 9 8 8 8 9 10 9 9 9 8 9 9 9 9 5 5 6 6 6 6 8 8 8 9 9 9
13 12 12 13 11 9 9 9 10 8 8 10 8 9 9 10 10 10 9 9 9 10 9 9 9 9 9 9 10 10 10 7 6 5 4 4 6 7 7 8 8 8 9
12 13 14 13 13 13 12 8 9 9 9 10 9 9 9 8 7 7 7 9 11 11 10 10 9 9 9 9 10 10 9 5 6 5 4 5 3 6 6 7 7 8 9
12 14 14 15 14 14 14 12 8 8 10 10 9 9 9 9 10 10 7 9 11 10 10 11 10 10 10 9 8 7 2 4 4 3 3 4 3 4 6 6 8 9 9
17 17 15 16 16 15 11 13 13 12 8 8 11 12 10 10 9 8 8 8 10 10 10 10 9 8 4 4 5 3 3 4 3 3 3 4 2 4 5 7 8 9 9
17 15 18 16 16 15 12 10 8 8 7 7 14 12 11 8 7 7 7 7 8 8 7 8 6 4 4 3 3 3 4 3 2 2 4 5 2 5 8 8 9 9 10
16 18 18 19 17 17 11 11 11 10 10 9 12 15 10 8 9 8 7 8 7 7 7 6 4 4 4 4 4 4 4 3 2 2 3 5 4 7 9 10 10 10 13
16 17 18 19 18 16 17 12 12 12 11 13 12 14 12 11 11 10 9 8 8 7 7 6 5 5 4 3 3 3 3 3 3 2 2 3 5 6 8 10 11 13 11
16 18 17 19 19 18 17 18 13 12 13 13 12 13 16 11 11 11 10 10 9 8 7 6 6 6 5 5 4 3 3 3 3 4 3 4 8 4 8 9 12 11 10
16 16 19 20 20 21 21 18 13 13 14 13 13 15 15 14 13 12 10 10 9 8 9 7 6 5 5 4 5 4 3 4 4 5 4 4 4 5 3 10 12 9 7
14 17 16 14 18 21 19 15 13 12 12 12 12 13 18 17 16 14 11 10 9 8 8 8 7 6 5 5 4 4 4 3 4 5 5 5 4 6 9 10 10 7 5
13 13 15 16 19 20 18 14 15 16 13 13 13 13 18 18 17 13 11 11 12 9 9 8 8 8 7 5 4 3 2 3 4 4 6 6 5 5 6 11 8 5 5
9 10 12 11 15 16 12 13 12 12 13 13 13 13 17 14 18 15 11 12 12 10 10 9 9 7 7 7 5 4 3 2 3 4 6 5 6 6 5 5 4 4 4
5 7 10 11 13 11 11 11 12 12 11 12 12 18 18 17 19 16 12 14 13 12 12 13 9 11 6 8 7 4 3 2 3 4 4 5 7 6 6 5 3 3 3
7 6 6 8 9 10 9 9 11 9 12 12 11 14 18 20 19 18 17 15 16 12 15 15 14 10 6 11 6 6 5 4 5 4 5 6 8 6 5 4 4 4 4
15 14 9 5 7 9 11 9 9 9 8 10 13 12 14 18 18 18 18 14 15 13 13 15 15 15 10 10 10 4 5 6 7 5 7 6 8 5 5 5 5 5 6
12 11 12 11 6 6 10 11 14 12 12 10 10 11 12 18 19 18 18 18 16 13 14 14 13 13 11 11 8 8 5 1 6 5 6 8 8 8 7 5 5 6 7
15 15 15 15 12 8 7 12 10 13 11 9 9 12 15 14 18 17 17 18 17 14 16 16 16 17 13 12 11 7 8 5 3 4 6 8 8 9 8 7 5 6 7
18 18 16 17 15 12 7 10 13 15 13 11 10 10 10 11 12 17 18 18 18 16 17 16 16 18 15 12 12 10 10 8 9 6 3 8 9 10 9 8 7 7 7
Wind_Direction
195 169 172 179 175 174 171 169 156 152 150 139 137 131 122 109 108 113 117 119 107 100 94 76 72 73 71 68 63 61 61 63 58 56 64 84 85 76 66 41 41 64 58
166 172 173 180 174 174 174 170 155 154 162 157 151 141 128 112 110 100 91 98 105 109 94 85 78 80 81 76 73 65 67 66 59 57 64 100 84 79 67 57 39 57 58
171 171 175 184 176 174 174 165 159 162 169 169 150 141 127 119 136 131 120 109 108 106 100 98 99 98 90 76 78 75 77 77 71 65 352 89 91 82 75 65 61 55 54
173 174 179 177 182 178 175 171 167 177 183 167 149 151 127 148 165 164 161 171 115 102 101 101 91 88 82 79 82 85 79 76 65 33 117 94 104 92 83 74 66 58 59
176 180 184 174 185 190 176 177 180 186 177 161 153 153 130 146 165 165 167 171 151 121 108 105 103 90 86 81 76 84 75 65 59 103 96 126 76 92 87 76 79 66 48
179 182 166 190 186 176 173 177 179 178 167 162 171 131 155 161 173 171 168 142 125 128 126 120 109 105 96 89 85 84 74 57 330 80 87 82 100 75 81 82 79 66 49
179 184 181 184 197 189 182 181 183 181 178 165 136 153 160 161 180 178 153 145 142 139 136 127 123 115 100 88 84 82 77 62 79 76 71 71 75 76 75 78 74 73 66
183 182 186 178 171 168 182 179 176 187 185 148 161 167 169 183 184 184 168 162 153 149 141 129 124 115 107 100 93 84 73 67 89 76 71 71 56 75 76 76 75 73 75
187 189 191 190 184 175 175 175 175 177 174 186 178 174 180 187 187 184 175 169 162 155 144 136 128 119 112 105 93 85 75 55 91 84 82 73 33 71 74 74 74 74 75
195 198 198 198 198 197 194 188 182 180 182 162 181 174 166 167 181 171 170 178 168 157 151 142 136 128 122 114 104 100 93 88 84 87 73 60 49 74 71 79 86 81 78
207 207 204 204 205 208 207 200 193 196 168 164 171 161 160 196 188 173 186 168 167 162 157 148 143 132 117 102 95 95 140 86 92 81 78 20 66 89 91 93 94 89 85
208 206 207 207 206 207 207 208 210 209 199 189 197 192 197 197 191 192 178 185 160 163 159 151 141 133 175 141 122 142 84 97 92 80 75 352 97 107 114 110 104 102 95
213 208 208 206 207 206 205 206 203 204 197 198 204 197 195 192 182 189 182 180 173 169 168 161 156 184 160 156 136 121 114 124 109 107 75 311 189 153 134 124 113 113 115
215 213 206 207 204 205 205 206 204 203 196 198 201 195 188 190 192 191 194 187 184 185 175 179 176 160 151 130 128 131 127 127 130 126 116 296 248 163 141 135 128 128 102
228 220 213 207 207 205 205 203 209 208 202 203 201 195 195 194 192 189 193 190 190 186 186 185 173 163 151 140 134 134 128 120 131 132 130 312 293 159 145 133 135 106 105
232 227 215 211 211 207 208 210 205 205 203 205 204 201 201 198 195 192 190 191 190 191 186 187 176 170 168 160 156 167 160 153 152 143 145 142 358 180 138 149 121 112 106
234 232 219 212 210 211 211 212 208 205 202 201 205 202 198 199 198 195 193 194 192 187 183 180 172 172 169 166 167 170 172 161 158 152 156 159 130 49 161 120 114 105 88
238 225 223 216 213 213 213 213 210 211 213 210 206 199 198 198 197 194 193 196 188 183 185 180 177 177 179 182 175 165 161 164 157 156 155 160 150 139 67 98 90 72 65
248 240 230 218 218 219 223 219 214 212 212 212 208 205 201 200 197 198 198 192 181 185 189 185 181 183 178 176 167 161 158 157 158 162 157 154 133 140 124 75 74 57 77
253 244 234 225 227 225 223 221 222 221 217 216 211 210 203 201 196 196 195 191 185 185 188 191 186 185 182 166 149 136 142 150 179 174 166 160 154 145 146 156 156 85 69
281 255 236 226 222 215 214 220 227 232 232 230 218 211 204 202 200 200 196 191 186 190 190 185 175 176 176 165 136 124 103 158 208 215 197 179 171 170 165 169 162 149 117
346 315 282 257 247 228 224 219 223 218 230 231 232 227 216 206 200 196 194 190 189 185 188 187 180 174 174 184 181 152 176 185 209 211 205 200 184 178 181 182 159 159 164
17 8 353 307 261 240 231 232 232 246 246 230 220 218 219 216 209 204 202 198 191 192 190 184 188 182 175 188 208 214 168 209 158 180 204 198 193 198 186 179 177 179 177
20 11 3 9 334 265 237 235 232 234 242 236 236 233 225 220 215 207 203 198 195 193 194 192 188 190 183 181 192 219 263 140 184 170 206 205 206 202 199 197 188 188 184
29 23 16 8 3 333 259 244 246 245 254 255 242 234 220 218 223 215 209 206 202 201 204 197 191 193 189 185 191 166 197 199 219 159 167 188 208 210 207 201 198 193 190
35 26 19 13 12 357 309 269 258 260 263 258 244 245 233 220 217 216 212 210 207 204 204 201 200 199 198 201 197 193 181 179 184 173 154 173 202 201 203 203 202 194 188